Regional Weather Roundup
Issued by NWS

Home | Current Version | Previous Version | Graphics & Text | Print | Product List | Glossary On
Versions: 1 2 3 4 5 6 7 8 9 10 11 12 13 14 15 16 17 18 19 20 21 22 23 24 25 26 27 28 29 30 31 32 33 34 35 36 37 38 39 40 41 42 43 44 45 46 47 48 49 50
000
ASUS43 KBIS 280802
RWRND

NORTH DAKOTA REGIONAL WEATHER ROUNDUP
NATIONAL WEATHER SERVICE BISMARCK ND
300 AM CDT SUN MAY 28 2017

NOTE: "FAIR" INDICATES FEW OR NO CLOUDS BELOW 12,000 FEET WITH NO
SIGNIFICANT WEATHER AND/OR OBSTRUCTIONS TO VISIBILITY.


NDZ001>003-009>011-017-280900-
NORTHWEST NORTH DAKOTA

CITY           SKY/WX    TMP DP  RH WIND       PRES   REMARKS
WILLISTON      FAIR      50  35  56 NW12      29.95R
MINOT          CLOUDY    56  44  64 W13       29.85R
MINOT AFB      CLOUDY    53  48  84 W8        29.84S
$$

NDZ018>021-031>035-040>046-280900-
SOUTHWEST NORTH DAKOTA

CITY           SKY/WX    TMP DP  RH WIND       PRES   REMARKS
BISMARCK       FAIR      44  40  85 CALM      29.88R
DICKINSON      FAIR      42  37  82 W7        29.93R
GARRISON         N/A     45  41  86 NW12      29.87R
HETTINGER ARPT CLEAR     46  40  79 NW8       29.96S
$$

NDZ004>008-012>016-024-026-027-054-280900-
NORTHEAST NORTH DAKOTA

CITY           SKY/WX    TMP DP  RH WIND       PRES   REMARKS
GRAND FORKS    CLOUDY    53  50  89 SW5       29.74R
GRND FRKS AFB  CLOUDY    53  47  83 NW8       29.74S
DEVILS LAKE    FAIR      51  46  83 W12       29.79S
$$

NDZ022-023-025-028>030-036>039-047>053-280900-
SOUTHEAST NORTH DAKOTA

CITY           SKY/WX    TMP DP  RH WIND       PRES   REMARKS
FARGO          CLOUDY    51  47  86 W9        29.76S
JAMESTOWN      MOCLDY    49  43  80 W8        29.80F
$$





USA.gov is the U.S. government's official web portal to all federal, state and local government web resources and services.